Location: Bakov nad Jizerou
(50.4784°N, 14.9394°E)
Time: 22:23:40
(UTC+00:00)

Cosmos 1302 Rocket - Pass Details

Date: 16 June 2021
Orbit: 757 x 775 km, 74.0° (Epoch: 23 July)

Event Time Altitude Azimuth Distance (km) Brightness Sun altitude
Exits shadow 21:42:30 11° 205° (SSW) 2,236 6.0 -14.1°
Maximum altitude 21:47:34 85° 293° (WNW) 779 4.0 -14.4°
Drops below altitude 10° 21:52:50 10° 23° (NNE) 2,315 7.2 -14.6°
Sets 21:55:13 0° 25° (NNE) 3,242 8.1 -14.7°
